Theta_e
316 315 313 313 313 310 309 307 306 305 304 304 304 304 306 305 305 306 308 315 320 319 320 319 319 316 316 314 313 313 313 312 311 311 310 310 310 310 310 309 309 309 309
319 315 313 311 311 313 312 309 306 302 301 302 301 302 301 301 302 302 302 306 317 319 318 318 318 316 315 314 313 312 312 311 310 309 309 308 308 308 308 308 308 307 307
319 317 315 313 311 314 311 308 303 300 298 300 298 299 299 298 297 299 297 298 300 312 317 316 315 315 313 312 311 311 310 309 308 308 307 307 307 307 307 307 306 306 306
322 318 316 315 315 313 309 306 302 299 298 298 296 296 295 295 295 296 296 296 296 298 306 313 313 312 312 311 310 309 308 308 307 306 305 305 305 305 305 305 305 305 305
324 321 320 317 315 311 307 305 301 299 295 293 291 291 291 292 290 293 294 294 295 294 294 303 306 310 310 310 309 308 307 306 305 304 304 303 303 303 303 303 303 304 304
325 323 322 319 315 310 306 303 300 297 295 293 291 288 287 289 287 288 290 292 292 291 291 292 292 296 308 308 308 307 306 305 303 302 302 302 302 302 302 302 302 303 303
328 325 322 318 314 309 306 302 297 293 292 291 289 288 288 288 286 287 287 288 288 288 289 289 288 289 293 304 306 306 306 304 303 301 300 300 300 300 301 301 301 302 302
329 327 323 318 313 310 306 302 299 294 292 291 289 288 284 285 286 285 286 286 284 285 286 286 286 288 288 288 293 303 304 303 301 300 299 298 298 298 299 300 300 301 301
328 326 324 319 314 312 306 303 300 297 293 291 291 291 283 284 281 285 285 284 285 283 284 284 285 286 286 286 292 295 300 300 299 298 297 296 296 297 298 298 299 300 300
327 326 324 319 316 313 310 305 303 300 297 291 291 292 290 287 284 280 284 283 284 284 281 284 283 284 284 285 288 290 295 296 296 295 295 294 295 295 296 298 299 299 300
316 321 321 318 316 314 312 308 305 301 299 296 294 294 291 287 287 284 281 280 283 284 284 284 284 284 284 283 283 288 293 294 294 293 293 293 293 294 296 297 298 299 300
314 312 313 317 316 314 314 310 307 303 301 300 296 298 293 290 285 284 282 282 283 283 284 283 283 283 283 283 286 288 292 293 293 292 292 292 292 293 295 296 297 298 299
304 311 310 311 313 314 314 312 308 304 302 300 298 298 297 297 289 289 285 282 282 282 282 283 283 283 283 283 284 288 290 291 292 292 291 291 293 292 293 295 296 297 297
306 304 306 310 311 312 312 312 308 305 304 301 301 298 298 298 292 289 286 283 280 280 281 282 283 283 283 283 284 289 284 290 291 292 291 291 292 292 292 293 294 295 295
302 300 303 304 307 309 310 310 307 304 303 301 300 298 298 296 291 290 288 287 286 280 279 281 281 284 284 284 284 285 283 286 290 291 290 291 291 291 292 293 293 294 295
300 299 301 303 304 306 306 307 306 304 302 301 300 298 297 297 292 291 289 287 287 286 282 282 282 283 284 283 284 284 283 285 287 289 290 290 290 291 291 292 292 293 293
299 299 298 300 301 302 303 303 304 303 300 300 298 297 295 296 292 291 290 289 285 284 282 280 281 282 283 282 282 283 282 282 282 287 288 289 289 290 290 291 291 291 291
297 298 296 296 297 300 300 300 301 301 298 298 296 296 295 295 292 290 289 286 285 283 282 279 280 280 281 282 282 282 281 281 281 284 287 288 289 289 290 289 289 289 289
294 293 293 294 293 296 297 297 299 299 296 298 297 294 295 292 289 287 286 285 285 283 282 281 278 279 279 281 279 280 280 280 281 284 287 288 289 288 288 288 287 287 285
294 292 292 293 293 292 292 295 295 296 295 295 294 293 293 288 289 285 284 284 283 283 281 281 278 278 278 279 280 278 278 280 279 280 283 284 285 286 286 286 285 284 283
293 291 290 290 290 289 290 289 291 293 292 292 291 290 290 288 288 286 285 283 284 284 281 279 278 277 277 278 278 278 278 279 279 280 279 279 279 279 279 282 282 282 283
288 287 286 288 286 288 291 292 291 289 289 289 287 286 286 284 286 287 288 287 287 283 281 280 278 278 278 279 279 279 278 277 276 279 277 277 278 278 278 278 281 282 281
286 285 285 284 285 285 290 291 291 288 288 288 287 284 283 284 284 285 287 287 287 287 286 282 280 280 279 279 280 279 279 278 277 278 276 275 278 276 278 278 279 279 278
284 284 284 283 284 283 289 290 290 287 285 286 285 284 283 282 284 284 284 283 283 284 284 283 284 283 282 281 282 282 280 279 278 278 277 273 275 274 275 274 276 276 276
278 279 280 281 280 281 288 289 289 286 284 283 283 283 283 282 285 286 283 282 281 282 285 286 285 285 286 285 283 280 276 275 273 275 276 274 272 271 271 271 271 274 273
280 279 279 282 282 282 286 288 288 285 283 281 282 282 283 283 286 287 283 281 280 281 282 283 283 284 284 285 285 281 278 275 274 270 274 271 269 268 265 268 269 268 268
Wind_Speed
6 5 4 3 4 4 4 4 4 4 5 6 5 5 8 6 6 3 3 10 11 12 13 13 14 12 14 13 14 14 14 15 14 15 15 16 16 16 17 17 17 17 18
8 7 7 4 4 5 6 5 5 5 4 5 6 4 6 6 5 4 3 6 6 12 12 12 14 12 12 12 12 13 13 13 13 14 14 14 14 15 15 15 15 16 16
10 10 8 8 6 4 6 6 5 5 5 4 6 5 5 6 5 6 4 4 5 8 10 11 11 11 11 11 11 12 12 12 12 12 12 12 12 13 13 13 14 14 15
13 11 9 9 8 6 6 7 7 6 5 5 4 3 4 5 5 5 4 4 4 4 6 10 10 10 10 10 11 10 10 10 10 10 10 10 10 11 11 11 12 12 13
14 12 10 9 9 8 7 8 6 8 6 5 6 3 3 4 4 3 5 5 5 4 4 8 9 3 11 10 10 10 10 9 9 8 8 8 8 8 9 10 10 11 12
14 12 9 10 10 9 7 6 9 5 7 7 6 5 3 2 3 3 4 3 4 5 5 4 3 4 5 9 10 10 10 9 8 7 6 6 6 6 7 8 9 11 12
15 14 9 10 11 11 12 11 6 9 4 6 6 2 2 1 2 3 3 4 4 4 5 4 3 2 1 5 9 9 10 9 7 6 5 4 4 4 6 7 9 11 12
16 15 13 12 12 10 11 10 12 7 3 9 5 4 3 2 3 4 3 4 6 4 5 5 5 5 4 2 3 9 8 8 7 5 4 2 2 3 5 7 9 11 12
16 17 15 13 13 12 11 14 14 14 8 11 11 6 4 6 3 3 8 6 7 4 4 5 6 6 6 4 4 6 9 8 7 5 4 2 1 3 6 8 9 11 13
11 14 14 13 14 12 13 14 13 15 10 13 5 7 2 4 6 3 3 7 7 9 7 5 6 7 7 5 8 9 10 10 8 7 5 4 3 4 6 8 10 12 14
5 8 12 14 13 11 13 16 16 15 13 10 12 8 3 2 3 3 3 4 5 7 8 8 8 8 7 7 5 8 14 12 11 9 7 5 4 5 6 9 11 13 15
7 6 7 11 12 12 13 14 17 19 16 15 12 10 10 8 7 4 3 4 10 6 8 8 9 7 7 7 10 14 15 14 13 11 8 7 6 5 7 9 11 13 15
5 10 9 7 9 12 13 13 15 16 17 15 16 15 11 11 4 7 4 3 3 3 5 7 8 8 7 6 7 14 16 15 14 12 9 6 8 5 7 9 11 14 15
8 7 10 11 11 10 11 12 11 13 16 15 19 14 10 10 8 7 7 6 3 3 4 2 7 8 7 7 9 17 7 15 14 13 10 8 8 6 8 9 11 14 15
6 8 10 11 12 14 13 14 11 13 14 14 16 14 12 8 6 7 6 5 6 7 11 7 6 12 9 8 10 9 7 11 14 13 10 12 9 8 9 10 12 14 16
8 9 11 12 13 14 14 13 13 12 14 12 12 15 13 9 8 8 8 8 7 7 6 5 6 5 11 8 11 9 8 12 13 12 10 13 10 10 11 12 14 15 16
10 11 11 12 13 13 12 12 14 12 15 15 14 14 16 14 9 10 10 10 9 6 4 1 2 2 10 11 9 7 7 6 5 11 14 11 11 11 12 13 15 15 17
8 10 10 11 12 12 12 13 15 13 14 16 15 15 16 11 13 11 10 13 10 5 5 5 2 2 5 11 9 9 5 4 4 8 14 12 12 12 12 13 13 14 17
8 8 9 11 10 12 12 12 14 14 13 15 14 15 15 13 13 9 10 9 8 5 3 4 3 2 2 7 5 4 4 4 4 8 13 13 12 11 12 12 13 14 15
8 9 10 12 12 12 12 13 12 13 12 13 12 12 13 14 15 13 11 12 10 8 5 6 4 5 3 2 4 5 3 3 3 3 8 8 9 11 11 11 12 12 14
8 8 8 10 9 9 8 10 11 11 11 12 9 10 11 13 14 15 10 12 14 9 8 7 4 4 3 4 9 4 4 3 3 4 3 3 3 3 4 8 7 10 13
7 6 7 9 9 8 13 16 13 10 11 11 10 9 7 9 15 21 21 23 19 15 14 8 3 6 6 4 4 4 3 4 3 2 4 3 3 4 4 3 7 10 14
6 8 7 7 9 8 14 16 19 9 9 10 9 8 7 7 11 12 19 22 21 24 19 11 11 7 6 7 8 6 7 4 3 3 3 3 4 4 3 2 6 9 7
6 6 7 8 8 7 15 16 16 11 8 9 10 11 11 11 13 13 12 11 11 13 11 6 8 6 7 8 8 7 7 4 1 3 3 3 0 2 2 2 6 2 9
3 4 4 6 7 6 13 14 11 7 8 7 8 9 10 11 17 21 13 13 11 7 9 13 13 12 9 14 12 7 4 4 3 3 2 2 1 0 0 1 1 4 6
5 2 4 5 6 6 12 13 13 5 7 6 6 8 14 13 22 22 12 13 12 9 9 8 8 10 13 12 17 9 7 5 3 1 3 3 2 1 2 1 0 0 1
Wind_Direction
165 155 150 157 168 145 144 132 124 118 109 102 91 106 89 83 68 54 43 51 122 123 121 119 106 113 109 105 101 99 97 94 91 88 84 81 77 74 70 66 62 57 52
174 169 163 170 186 182 149 145 142 130 121 121 104 96 96 89 84 66 34 54 71 125 128 122 127 127 117 112 110 107 103 100 95 91 86 83 78 73 69 64 60 55 50
177 173 174 179 181 179 145 133 113 105 102 100 110 105 109 97 89 82 54 63 43 57 137 132 133 136 127 122 118 113 110 106 101 95 90 85 79 73 65 58 54 50 44
180 178 180 186 181 162 162 154 148 139 132 131 128 108 101 96 102 91 83 78 69 48 39 140 155 148 145 139 131 125 118 111 107 100 92 83 75 68 61 53 44 40 36
185 183 186 184 168 167 173 165 158 155 152 133 124 108 108 120 129 122 112 98 95 88 73 56 40 130 163 153 144 137 129 123 114 106 96 85 72 62 52 45 34 26 24
190 190 187 179 171 169 168 172 168 155 151 143 124 98 69 89 116 150 158 145 137 124 114 97 56 11 156 160 160 156 146 139 132 121 105 87 68 53 40 32 22 14 10
193 194 189 177 175 177 180 171 143 141 134 133 105 77 73 130 201 204 189 184 184 172 152 142 129 95 59 156 172 168 161 154 147 134 115 94 63 38 22 12 6 1 359
198 196 189 183 182 177 174 178 169 161 121 182 138 108 173 283 231 215 222 207 203 192 190 183 165 151 133 104 246 179 173 166 163 153 144 117 42 10 2 355 352 351 349
199 200 191 184 180 182 182 185 178 178 174 194 185 150 148 212 140 187 211 213 202 203 209 204 185 178 168 169 167 190 183 181 177 177 180 200 297 338 341 340 341 341 341
200 198 188 185 184 186 190 190 192 188 180 183 204 246 262 147 173 201 226 211 203 205 203 195 208 187 184 175 183 189 193 189 191 195 206 229 277 315 327 332 335 336 337
205 205 192 183 188 194 194 191 190 207 193 197 198 182 178 237 100 136 193 193 214 216 202 203 198 195 194 185 185 199 194 194 197 206 218 236 271 296 322 330 334 334 336
207 208 201 194 194 197 200 198 199 196 208 202 203 205 181 184 186 170 156 187 214 205 203 208 208 207 186 192 193 195 204 205 205 210 221 240 260 288 315 324 330 332 333
211 219 200 205 208 206 208 205 205 204 204 214 203 213 207 206 140 178 130 138 185 170 203 213 209 203 198 194 204 192 208 215 216 216 224 246 256 283 301 314 322 328 331
213 192 202 217 220 222 216 212 206 211 211 214 216 222 216 212 185 180 159 150 140 169 223 198 209 204 186 191 205 201 200 218 225 225 229 255 255 275 290 304 315 321 324
204 195 200 209 223 228 230 227 216 208 212 212 218 213 217 217 184 167 156 165 159 177 213 197 173 198 184 184 203 199 190 216 225 230 238 260 260 277 286 297 305 314 320
197 196 205 212 221 224 221 227 229 215 212 214 212 214 212 208 199 183 186 185 192 179 206 182 194 190 183 189 193 187 187 203 223 229 236 256 270 281 287 295 303 313 316
201 206 204 212 219 222 219 222 230 226 218 216 212 211 213 205 199 199 195 194 192 168 139 154 141 143 180 186 186 182 177 187 212 228 241 258 271 277 285 296 308 310 320
209 212 206 210 213 217 215 217 224 226 222 219 212 210 213 210 207 200 197 193 188 163 134 158 134 155 180 191 174 172 182 197 195 224 241 252 264 271 284 302 306 309 319
206 205 199 210 210 215 215 220 226 228 222 223 220 213 214 201 210 196 193 182 167 144 116 132 143 155 139 173 138 139 176 203 205 228 247 251 258 274 285 293 309 321 328
213 209 208 211 213 211 211 212 217 226 223 224 220 215 215 201 204 188 176 164 154 150 135 158 172 161 136 132 139 165 182 200 205 210 236 234 253 262 275 297 312 322 317
232 220 211 221 215 207 208 211 213 220 222 227 220 213 211 206 199 184 170 168 163 162 159 173 157 148 138 144 188 166 178 135 228 206 215 234 214 247 266 290 301 303 314
243 224 219 218 215 224 221 212 209 218 219 218 214 211 196 181 184 185 184 176 168 167 173 175 170 159 174 141 135 153 130 170 213 171 180 227 192 234 231 240 279 311 321
223 222 221 214 227 223 221 220 218 217 222 223 214 191 179 183 178 175 177 169 175 185 182 178 161 178 155 166 150 145 179 174 179 160 154 245 190 222 217 243 297 316 351
227 217 218 214 219 220 226 224 221 216 214 207 196 190 186 176 180 169 167 173 178 189 181 160 168 149 188 155 157 157 177 158 92 196 151 231 144 210 169 285 298 67 8
231 214 208 214 219 227 230 228 219 200 219 205 192 185 181 177 181 175 168 162 163 147 150 148 129 166 153 162 149 129 157 147 201 216 169 157 157 199 354 289 24 31 355
262 228 225 223 215 220 234 235 224 194 207 189 180 183 179 176 182 178 169 164 167 169 157 145 155 169 171 175 172 180 163 178 142 283 171 164 139 101 304 303 199 304 324